Location: Brede
(50.9167°N, 0.6000°E)
Time: 17:53:35
(UTC+00:00)

CBERS-1 - Pass Details

Date: 08 August 2020
Orbit: 769 x 778 km, 98.6° (Epoch: 23 September)

Event Time Altitude Azimuth Distance (km) Brightness Sun altitude
Rises 03:03:19 0° 11° (N) 3,266 8.3 -12.4°
Reaches altitude 10° 03:05:42 10° 6° (N) 2,333 7.3 -12.1°
Maximum altitude 03:10:37 48° 293° (WNW) 1,006 4.5 -11.6°
Enters shadow 03:14:39 15° 223° (SW) 1,992 5.5 -11.1°
